Terug naar catalogus

STARLINK-36537

ActiefCommunicatieVLEO
NORAD 67516·PAYLOAD·🇺🇸 United States

Gelanceerd Jan 18, 2026 vanaf Cape Canaveral Space Force Station

Loading…

Volgende Passages (komende 24 uur)

TLE

VersSource: CelesTrak SupGP

Epoch: Sep 14, 2026, 20:59 UTC

1 67516C 26012Z   26257.87479167 -.00020783  00000+0 -75269-3 0  2577
2 67516  43.0037 325.8416 0001786 275.3076 199.8862 15.27591715    12

Volg STARLINK-36537 in realtime met AllMySat

Download on the App Store